Location: Highridge
(54.0333°N, 114.1333°W)
Time: 14:52:24
(UTC+00:00)

BEESAT - Visible Passes

Search period start: 14 September 2024 00:00
Search period end: 24 September 2024 00:00
Orbit: 690 x 700 km, 98.4° (Epoch: 13 September)

Date Brightness Start Highest point End Pass type
(mag) Time Alt. Az. Time Alt. Az. Time Alt. Az.
14 Sep ? 04:57:41 10° NE 04:58:47 14° NE 04:58:47 14° NE visible
14 Sep ? 06:34:30 10° NNE 06:37:31 39° N 06:37:31 39° N visible
14 Sep ? 08:13:25 10° NNW 08:16:02 15° NW 08:16:14 15° NW visible
15 Sep ? 05:37:35 10° NNE 05:39:41 24° NE 05:39:41 24° NE visible
15 Sep ? 07:15:20 10° N 07:18:25 30° NNW 07:18:25 30° NNW visible
16 Sep ? 04:41:49 10° NE 04:41:51 10° NE 04:41:51 10° NE visible
16 Sep ? 06:17:59 10° NNE 06:20:35 33° NNE 06:20:35 33° NNE visible
16 Sep ? 07:56:29 10° N 07:59:18 19° NW 07:59:18 19° NW visible
17 Sep ? 05:21:16 10° NNE 05:22:44 18° NE 05:22:44 18° NE visible
17 Sep ? 06:58:40 10° N 07:01:28 32° NNW 07:01:28 32° NNW visible
17 Sep ? 08:38:46 10° NNW 08:39:42 11° NW 08:40:11 10° NW visible
18 Sep ? 06:01:29 10° NNE 06:03:36 26° NNE 06:03:36 26° NNE visible
18 Sep ? 07:39:38 10° N 07:42:19 22° NW 07:42:19 22° NW visible
19 Sep ? 05:05:01 10° NE 05:05:43 13° NE 05:05:43 13° NE visible
19 Sep ? 06:42:01 10° N 06:44:27 30° N 06:44:27 30° N visible
19 Sep ? 08:21:08 10° NNW 08:23:10 14° NW 08:23:10 14° NW visible
20 Sep ? 05:44:58 10° NNE 05:46:34 20° NE 05:46:34 20° NE visible
20 Sep ? 07:22:50 10° N 07:25:18 24° NNW 07:25:18 24° NNW visible
21 Sep ? 06:25:22 10° NNE 06:27:24 26° NNE 06:27:24 26° NNE visible
21 Sep ? 08:04:00 10° NNW 08:06:08 16° NW 08:06:08 16° NW visible
22 Sep ? 05:28:30 10° NNE 05:29:30 15° NE 05:29:30 15° NE visible
22 Sep ? 07:06:02 10° N 07:08:14 25° N 07:08:14 25° N visible
23 Sep ? 06:08:43 10° NNE 06:10:19 21° NNE 06:10:19 21° NNE visible
23 Sep ? 07:47:00 10° N 07:49:02 19° NNW 07:49:02 19° NNW visible
